Home > Weather > Playa del Carmen > Past weeks

Flag for Mexico Weather for the Past 2 Weeks in Playa del Carmen, Quintana Roo, Mexico

Now
77 °F

Passing clouds.


Feels Like: 78 °F
Forecast: 79 / 88 °F
Wind: 9 mph from Southeast

Location: Cozumel Civ / Mil

Current Time: Apr 30, 2016 at 12:54:31 AM

Latest Report: Apr 29, 2016 at 11:44 PM


Visibility: 7 mi

Pressure: 29.85 "Hg

Humidity: 89%

Dew Point: 73 °F

Location of Playa del CarmenLocation

Historic Weather in Playa del Carmen — Graph

°F

Playa del Carmen Temperature Yesterday

Maximum temperature yesterday: 84 °F (at 10:47 AM)
Minimum temperature yesterday: 73 °F (at 2:40 AM)
Average temperature yesterday: 79 °F

High & Low Weather Summary for the Past Weeks

 TemperatureHumidityPressure
High86 °F (Apr 28, 1:41 PM)100% (Apr 14, 10:44 PM)30.09 "Hg (Apr 14, 10:44 PM)
Low64 °F (Apr 22, 6:47 AM)58% (Apr 20, 9:46 AM)29.77 "Hg (Apr 27, 5:01 PM)
Average76 °F86%29.92 "Hg
* Reported Apr 14 10:44 PM — Apr 29 10:40 PM, Playa del Carmen, Weather by CustomWeather, © 2016

Note: Actual official high and low records may vary slightly from our data, if they occured in-between our weather recording intervals... More about our weather records

Advertising

Playa del Carmen Weather History for the Previous 24 Hours

Scroll right to see more
 ConditionsComfort  
Time TempWeatherWind HumidityBarometerVisibility
10:40 PM
Fri, Apr 29
77 °FPassing clouds.8 mph89%29.87 "Hg7 mi
9:45 PM77 °FPassing clouds.9 mph89%29.89 "Hg7 mi
8:45 PM77 °FPassing clouds.13 mph89%29.85 "Hg7 mi
7:52 PM77 °FBroken clouds.10 mph89%29.84 "Hg7 mi
6:51 PM79 °FBroken clouds.16 mph84%29.81 "Hg7 mi
5:55 PM81 °FScattered clouds.15 mph79%29.83 "Hg8 mi
3:53 PM82 °FPartly sunny.17 mph79%29.86 "Hg8 mi
2:52 PM82 °FPartly sunny.18 mph74%29.85 "Hg8 mi
1:46 PM82 °FPartly sunny.14 mph74%29.86 "Hg8 mi
11:44 AM82 °FPartly sunny.21 mph79%29.91 "Hg8 mi
10:47 AM84 °FPartly sunny.13 mph74%29.92 "Hg8 mi
9:40 AM82 °FPartly sunny.13 mph79%29.94 "Hg8 mi
8:42 AM81 °FPartly sunny.17 mph84%29.91 "Hg8 mi
5:42 AM73 °FPassing clouds.5 mph100%29.88 "Hg7 mi
4:51 AM73 °FPassing clouds.5 mph100%29.86 "Hg7 mi
3:42 AM75 °FPassing clouds.6 mph94%29.88 "Hg7 mi
2:40 AM73 °FPassing clouds.7 mph100%29.87 "Hg7 mi
12:45 AM75 °FPassing clouds.8 mph100%29.89 "Hg7 mi
Weather by CustomWeather, © 2016

See weather overviewHow to use our weather pages